East Milton, MA

6:41 PM EST on December 18, 2017 (GMT -0500)
East Milton

Weather History for KMQE - May, 2014

Change the Weather History Date:

Friday, May 2, 2014

  Actual Average (KOWD) Record (KOWD)
Temperature  
Mean Temperature 60 °F -  
Max Temperature 68 °F 64 °F 91 °F (2001)
Min Temperature 51 °F 41 °F 30 °F (2005)
Degree Days  
Heating Degree Days 6    
Growing Degree Days 10 (Base 50)    
Moisture  
Dew Point 40 °F    
Average Humidity 54    
Maximum Humidity 96    
Minimum Humidity 31    
Precipitation  
Precipitation 0.00 in - - ()
Sea Level Pressure  
Sea Level Pressure 29.73 in    
Wind  
Wind Speed 11 mph (WNW)    
Max Wind Speed 17 mph    
Max Gust Speed 28 mph    
Averages and records for this station are not official NWS values.
T = Trace of Precipitation, MM = Missing Value Source: NWS Daily Summary

Daily Weather History Graph

Daily Weather History Graph

Search for Another Location

Airport or City:

Trip Planner

Search our weather history database for the weather conditions in past years. The results will help you decide how hot, cold, wet, or windy it might be!

Date:

Astronomy

May. 02, 2014 Rise Set
Actual Time 5:38 AM EDT 7:44 PM EDT
Civil Twilight 5:08 AM EDT 8:15 PM EDT
Nautical Twilight 4:30 AM EDT 8:53 PM EDT
Astronomical Twilight 3:49 AM EDT 9:34 PM EDT
Moon 8:12 AM EDT (5/2) 11:05 PM EDT (5/2)
Length of Visible Light 15h 07m
Length of Day
14h 06m
Waxing Crescent, 12% of the Moon is Illuminated
May 2
Waxing Crescent
May 6
First Quarter
May 14
Full
May 21
Last Quarter
May 28
New

Hourly Weather History & Observations

Time (EDT) Temp. Dew Point Humidity Pressure Visibility Wind Dir Wind Speed Gust Speed Precip Events Conditions
12:54 AM 55.0 °F 54.0 °F 96% 29.70 in - WNW 11.5 mph - N/A   Unknown
1:54 AM 55.0 °F 54.0 °F 96% 29.70 in - NW 12.7 mph - N/A   Unknown
2:54 AM 55.0 °F 48.0 °F 77% 29.73 in - NW 13.8 mph 20.7 mph N/A   Unknown
3:54 AM 52.0 °F 48.0 °F 86% 29.73 in - NW 8.1 mph - N/A   Unknown
4:54 AM 52.0 °F 39.9 °F 63% 29.71 in - NNW 12.7 mph 20.7 mph N/A   Unknown
5:54 AM 51.1 °F 36.0 °F 56% 29.70 in - NNW 16.1 mph - N/A   Unknown
6:54 AM 52.0 °F 37.0 °F 57% 29.70 in - NNW 11.5 mph 18.4 mph N/A   Unknown
7:54 AM 51.1 °F 39.9 °F 66% 29.75 in - West 5.8 mph - N/A   Unknown
8:54 AM 55.0 °F 39.9 °F 57% 29.74 in - WNW 5.8 mph - N/A   Unknown
9:54 AM 57.0 °F 37.9 °F 49% 29.75 in - West 9.2 mph - N/A   Unknown
10:54 AM 60.1 °F 39.0 °F 46% 29.73 in - West 10.4 mph - N/A   Unknown
11:54 AM 63.0 °F 39.0 °F 41% 29.72 in - West 10.4 mph - N/A   Unknown
12:54 PM 62.1 °F 34.0 °F 35% 29.70 in - West 15.0 mph 27.6 mph N/A   Unknown
1:54 PM 63.0 °F 34.0 °F 34% 29.70 in - WSW 9.2 mph 19.6 mph N/A   Unknown
2:54 PM 64.9 °F 34.0 °F 32% 29.69 in - WSW 17.3 mph 26.5 mph N/A   Unknown
3:54 PM 68.0 °F 36.0 °F 31% 29.68 in - West 12.7 mph 25.3 mph N/A   Unknown
4:54 PM 63.0 °F 35.1 °F 35% 29.70 in - West 10.4 mph 24.2 mph N/A   Unknown
5:54 PM 63.0 °F 35.1 °F 35% 29.71 in - WNW 12.7 mph - N/A   Unknown
6:54 PM 63.0 °F 37.0 °F 38% 29.73 in - WNW 8.1 mph - N/A   Unknown
7:54 PM 59.0 °F 39.0 °F 48% 29.77 in - WSW 8.1 mph - N/A   Unknown
8:54 PM 57.0 °F 39.0 °F 51% 29.79 in - West 4.6 mph - N/A   Unknown
9:54 PM 55.0 °F 37.9 °F 53% 29.82 in - WNW 8.1 mph - N/A   Unknown
10:54 PM 55.0 °F 37.9 °F 53% 29.82 in - WNW 10.4 mph - N/A   Unknown
11:54 PM 54.0 °F 37.9 °F 55% 29.83 in - WNW 8.1 mph - N/A   Unknown